Location: Axtheid
(49.6213°N, 11.8205°E)
Time: 20:00:18
(UTC+00:00)

COSMOS 2428 - Pass Details

Date: 18 February 2020
Orbit: 846 x 856 km, 70.9° (Epoch: 03 April)

Event Time Altitude Azimuth Distance (km) Brightness Sun altitude
Exits shadow 02:34:33 26° 14° (NNE) 1,627 4.4 -36.1°
Drops below altitude 10° 02:37:03 10° 23° (NNE) 2,500 5.6 -35.7°
Sets 02:39:34 0° 28° (NNE) 3,440 6.6 -35.4°
